Showing default

HAWK-2B, 47508

Orbit data source: Space-Track

HAWK-2B, 47508 is a payload satellite owned by HawkEye 360 (US) in SSO that was launched on Sun, 24 Jan 2021 UTC via an FALCON 9 launch vehicle from the Air Force Eastern Test Range (AFETR). Payload-class satellites include a variety of spacecraft equipped with specific instruments for various scientific and technological missions. These include communications satellites like Starlink; space stations such as the ISS; scientific satellites like the Hubble; Earth observation satellites from companies like Planet Labs, Umbra, and HawkEye 360; GPS; miniature CubeSats for education and research; and military/defense satellites.

Loading next visibility...
Identifier
47508, 2021-006CZ
Orbit
SSO
Country
Flag of USUS
Related business
Manufacturer
UTIAS-SFL
Mission
Operational Commercial Sigint
Bus & Motor
DEFIANT, Unknown motor
Mass
31 kg wet, 30 kg dry
Launch date (UTC)
2021-01-24 (5 years ago)
Launch vehicle
FALCON 9
Launch site
Air Force Eastern Test Range (AFETR)
Object type
Payload
Rocket body
Debris
Shape & HBR
Box + 2 Pan, 1.0 m
Radar Cross Section
0.348 m², Medium (>0.1 m² and < 1m²)

Expand to show TLE details & history
Last TLE update: 14 hours ago

TLE from 14 hours ago
0 HAWK-2B
1 47508U 21006CZ  25287.87918700  .00008889  00000-0  30520-3 0  9993
2 47508  97.2577 331.5224 0007829  14.6595 345.4872 15.30332705261921
Epoch: 2025-10-14T21:06Z
TLE epoch observation values (Epoch: 2025-10-14T21:06:01.756Z)
Latitude
-0.00001°
Longitude
-8.6462°
Altitude
472.733 km
Speed
7.632 km/s
True Right ascension
22h 06m 05s
True Declination
0° 00' 00"
Sunlit
Object was in full shadow at epoch
Visualization orbit readout
Latitude
Unknown
Longitude
Unknown
Altitude
Unknown
Speed
Unknown
Apparent Right ascension
Unknown
Apparent Declination
Unknown
Sunlit
N/A
Visualization observer readout
Local Sidereal Time
05:48:30
Azimuth
Unknown
Elevation
Unknown
Doppler factor
Unknown
Orbital elements
Apogee altitude
477.127 km
Perigee altitude
466.402 km
Semi-major axis
6,849.902 km
Eccentricity
0.00078
Inclination
97.2577°
RAAN
331.5224°
Arg. of periapsis
14.6595°
True anomaly
345.4647°
Mean anomaly
345.4872°
Eccentric anomaly
345.47595°
Mean motion
3.82839 °/min
Orbital period
94.03 mins
BSTAR
0.0003052
Loading maneuver chart data...
Computing Atmospheric mass density...

Documentation

Showing up to 5 results
|